Find Starlink 30381

NORAD ID: 57785 Int'l Des: 2023-134 Owner: SPXS Country: US Constellation: starlink operational
LEOCIRCULAR

Current View

Loading 3D Globe...

About Starlink 30381

Starlink 30381 (NORAD 57785) is a starlink constellation satellite (v2 mini) launched Sep 4, 2023 by SPXS of US. It operates in LEO, CIRCULAR orbit with a mass of 730.00 kg.

About Starlink 30381

Description loading...

Upcoming Passes

Passes for default location (London). Set your location on the main map for personalized predictions.

Altitude History

Loading altitude history...

Two-Line Element Set

1 57785U 23134Q 26163.87394909 -.00000420 00000-0 -57362-5 0 9998
2 57785 43.0054 16.8721 0001404 259.0053 101.0641 15.27570383154068
Epoch: Jun 12, 2026 • Age: 12 hours

Current Status

Altitude 483.2 km
Velocity 7.63 km/s
Sub-Earth Point -3.60°S, 164.76°E
Launch Date Sep 4, 2023
Age 2.7 years
Type internet

Technical Details

Classification Payload
Mass 730.00 kg
Dry Mass 700.00 kg
Total Mass 730.00 kg
Length 0.30 m
Diameter 4.10 m
Span 29.00 m
Shape Box + pan
Manufacturer SPXS
Bus Type Starlink V2M
Phase Status In Orbit
Owner/State SPXS/US

Most Searched